DLH6DR EDDH-EDDM

Flight info

Callsign DLH6DR
Flight time N/A
Altitude 35000
Route AMLUH2G AMLUH M852 DENIX DCT ZUCKA DCT SODRO/N0464F310 T703 LULAR/N0466F300 T105 LANDU LANDU2B
Aircraft A319/M-SDE2E3FGILORWXY/HB1

Departure

Time 2026-04-24 17:00
Airport Hamburg Helmut Schmidt Airport (EDDH)

Arrival

Time N/A
Airport Munich Airport (EDDM)
Time Latitude Longitude Altitude Speed Heading
2026-04-24 16:03 53.63111 10.00375 81 ft 0 kts 87°
2026-04-24 16:53 53.63111 10.00356 80 ft 2 kts 87°
2026-04-24 16:54 53.63110 10.00328 80 ft 2 kts 87°
2026-04-24 16:54 53.63109 10.00302 80 ft 2 kts 87°
2026-04-24 16:54 53.63108 10.00277 80 ft 2 kts 99°
2026-04-24 16:54 53.63118 10.00257 80 ft 2 kts 162°
2026-04-24 16:55 53.63125 10.00255 80 ft 1 kts 180°
2026-04-24 16:55 53.63128 10.00255 80 ft 0 kts 177°
2026-04-24 16:57 53.63116 10.00257 80 ft 6 kts 176°
2026-04-24 16:57 53.63054 10.00245 80 ft 10 kts 206°
2026-04-24 16:57 53.62985 10.00173 80 ft 12 kts 214°
2026-04-24 16:57 53.62910 10.00088 80 ft 13 kts 212°
2026-04-24 16:58 53.62856 10.00002 80 ft 9 kts 242°
2026-04-24 16:58 53.62841 9.99949 80 ft 4 kts 245°
2026-04-24 16:58 53.62823 9.99887 80 ft 7 kts 243°
2026-04-24 16:58 53.62806 9.99808 80 ft 7 kts 295°
2026-04-24 16:59 53.62826 9.99781 80 ft 0 kts 332°
2026-04-24 16:59 53.62884 9.99729 80 ft 37 kts 331°
2026-04-24 16:59 53.64198 9.98607 243 ft 153 kts 331°
2026-04-24 17:00 53.65161 9.97837 922 ft 156 kts 333°
2026-04-24 17:00 53.67083 9.96262 2440 ft 160 kts 330°
2026-04-24 17:00 53.68104 9.95331 2955 ft 178 kts 335°
2026-04-24 17:01 53.70699 9.94684 4437 ft 199 kts 357°
2026-04-24 17:01 53.72059 9.94823 5333 ft 204 kts 13°
2026-04-24 17:02 53.73908 9.98440 7035 ft 234 kts 73°
2026-04-24 17:02 53.74143 10.01167 7885 ft 239 kts 77°
2026-04-24 17:02 53.74045 10.04026 8665 ft 255 kts 102°
2026-04-24 17:02 53.73260 10.06891 9293 ft 275 kts 115°
2026-04-24 17:03 53.71191 10.12766 10369 ft 308 kts 117°
2026-04-24 17:03 53.70085 10.15957 10913 ft 325 kts 117°
2026-04-24 17:03 53.68764 10.19184 11316 ft 347 kts 133°
2026-04-24 17:04 53.66698 10.21533 11710 ft 366 kts 159°
2026-04-24 17:04 53.61602 10.23836 12660 ft 393 kts 168°
2026-04-24 17:04 53.58948 10.24959 13415 ft 397 kts 167°
2026-04-24 17:05 53.56261 10.26135 14164 ft 400 kts 167°
2026-04-24 17:05 53.53583 10.27337 14909 ft 403 kts 166°
2026-04-24 17:05 53.48154 10.29812 16354 ft 408 kts 166°
2026-04-24 17:06 53.45429 10.31058 17002 ft 411 kts 166°
2026-04-24 17:06 53.39909 10.33563 18246 ft 417 kts 167°
2026-04-24 17:06 53.37118 10.34816 18845 ft 420 kts 167°
2026-04-24 17:07 53.35229 10.35664 19246 ft 422 kts 167°
2026-04-24 17:07 53.31468 10.37352 20006 ft 426 kts 167°
2026-04-24 17:07 53.25716 10.39930 21091 ft 432 kts 168°
2026-04-24 17:08 53.19914 10.42524 22119 ft 438 kts 168°
2026-04-24 17:08 53.16978 10.43833 22606 ft 441 kts 168°
2026-04-24 17:08 53.14021 10.45140 23080 ft 444 kts 169°
2026-04-24 17:09 53.07970 10.47194 24028 ft 447 kts 173°
2026-04-24 17:09 53.01850 10.49086 24931 ft 453 kts 173°
2026-04-24 17:10 52.98759 10.50042 25399 ft 455 kts 173°
2026-04-24 17:10 52.89408 10.52936 26732 ft 461 kts 173°
2026-04-24 17:11 52.79881 10.55875 27972 ft 467 kts 173°
2026-04-24 17:12 52.63913 10.60774 30219 ft 466 kts 173°